Regional Weather Roundup
Issued by NWS

Home | Current Version | Previous Version | Text Only | Print | Product List | Glossary Off
Versions: 1 2 3 4 5 6 7 8 9 10 11 12 13 14 15 16 17 18 19 20 21 22 23 24 25 26 27

000
ASUS45 KSLC 201210
RWRUT

UTAH REGIONAL WEATHER ROUNDUP
NATIONAL WEATHER SERVICE SALT LAKE CITY UT
500 AM MST FRI JAN 20 2017

UTZ001>011-023>025-201300-

NORTHERN UTAH

CITY           SKY/WX    TMP DP  RH WIND       PRES   REMARKS
BRIGHAM CITY     N/A     30  28  94 SW5       29.63F VSB 1   WCI  25
HILL AFB       CLOUDY    27  27 100 SW5       29.61F FOG     WCI  21
LOGAN          FOG       28  28 100 W7        29.62F VSB 1   WCI  21
OGDEN          LGT SNOW  28  28 100 SW6       29.62F FOG     WCI  22
SALT LAKE CITY FOG       29  29 100 W6        29.63F VSB 1/4 WCI  23
TOOELE VALLEY  LGT SNOW  30  30 100 NE5       29.64F WCI  25
WENDOVER       CLOUDY    25  21  86 SE5       29.64F WCI  19
HEBER CITY     CLOUDY    28  27  93 CALM      29.58F
WEST JORDAN    CLOUDY    30  30 100 CALM      29.63F VSB 1/4

$$

UTZ011>015-024>027-201300-

CENTRAL/NORTHEAST UTAH

CITY           SKY/WX    TMP DP  RH WIND       PRES   REMARKS
PROVO AIRPORT  MIX PCPN  32  30  93 CALM      29.64S FOG
MOAB/CANYONLAN LGT SNOW  31  31 100 NW3       29.60S FOG
DELTA          CLOUDY    30  30 100 CALM      29.63F
PRICE          MOCLDY    14  12  92 CALM      29.58S
ROOSEVELT      CLOUDY    18  14  86 W5        29.67S FOG     WCI  11
VERNAL         CLOUDY    16  14  92 CALM      29.63F FOG

$$

UTZ013>016-019>022-027-201300-

SOUTHERN UTAH

CITY           SKY/WX    TMP DP  RH WIND       PRES   REMARKS
BRYCE CANYON   PTCLDY    18  15  88 NW7       29.63S WCI   9
CEDAR CITY     FOG       18  16  92 SW7       29.65F VSB 1/2 WCI   9
MILFORD        CLOUDY    30  27  88 S13       29.64F WCI  20
ST GEORGE      PTSUNNY   37  34  87 CALM      29.74F
HANKSVILLE     CLOUDY    32  32 100 MISG      29.65S
BLANDING       CLOUDY    29  29 100 S9        29.70F WCI  20

$$

REGIONAL REPORTS     COLORADO/ARIZONA

CITY           SKY/WX    TMP DP  RH WIND       PRES   REMARKS
CRAIG, CO      CLOUDY    26  23  88 SW3       29.56S
GRAND JUNCTION CLOUDY    31  31 100 CALM      29.58S FOG
RIFLE, CO      LGT SNOW  30  30 100 CALM      29.56F FOG
MONTROSE, CO   CLOUDY    31  30  96 E8        29.60S WCI  23
CORTEZ, CO     LGT SNOW  29  27  92 S13       29.66S FOG     WCI  19
COLORADO CITY  CLOUDY    32  32 100 CALM      29.74S
PAGE, AZ       CLEAR     37  29  72 W3        29.68R
GRAND CANYON   CLOUDY    28  28 100 SW8       29.72R FOG     WCI  20
KINGMAN, AZ      N/A     41  36  82 CALM      29.74F
FLAGSTAFF, AZ  LGT SNOW  28  26  92 SW15G22   29.72S FOG     WCI  16

$$

REGIONAL REPORTS    NEVADA/IDAHO/WYOMING

CITY           SKY/WX    TMP DP  RH WIND       PRES   REMARKS
LAS VEGAS, NV  CLOUDY    48  33  56 VRB6      29.66F
ELY, NY        CLOUDY    16  15  96 S14       29.60F WCI   2
ELKO, NV       CLOUDY    20  16  84 NE8       29.56F WCI  10
POCATELLO, ID  FLURRIES  30  27  88 CALM      29.60F
BURLEY, ID     MOCLDY    29  23  78 S7        29.56F WCI  22
FORT BRIDGER,  CLOUDY    25  25 100 W7        29.59F WCI  18
EVANSTON, WY   FOG       23  20  88 W7        29.58S VSB 1/2 WCI  15
ROCK SPRINGS,  CLOUDY    21  19  92 W12       29.55F WCI   9

$$




USA.gov is the U.S. government's official web portal to all federal, state and local government web resources and services.